Flag for U.S.A. Weather past 2 weeks in Augusta, Georgia, U.S.A.

Now
82 °F

Sunny.


Feels Like: 85 °F
Forecast: 68 / 86 °F
Wind: 7 mph from Southeast

Location: Daniel Field

Current Time: May 27, 2015 at 8:46:20 PM

Latest Report: May 27, 2015 at 7:53 PM


Visibility: 10 mi

Pressure: 30.15 "Hg

Humidity: 65%

Dew point: 69 °F

Location of AugustaLocation

Historic Weather in Augusta — Graph

°F

Augusta temperature yesterday

Maximum temperature yesterday: 88 °F (at 2:53 PM)
Minimum temperature yesterday: 70 °F (at 9:53 PM)
Average temperature yesterday: 76 °F

Past Weeks' High & Low Weather Summary

 TemperatureHumidityPressure
High91 °F (May 20, 3:53 PM)91% (May 18, 9:53 PM)30.39 "Hg (May 18, 9:53 PM)
Low62 °F (May 22, 5:53 AM)23% (May 23, 4:53 PM)29.83 "Hg (May 21, 4:53 AM)
Average77 °F61%30.17 "Hg
* Reported May 12 7:53 PM — May 27 7:53 PM, Augusta, Weather by CustomWeather, © 2015

Note: Actual official high and low records may vary slightly from our data, if they occured in-between our weather recording intervals... More about our weather records

Advertising

Augusta weather history for previous 24 hours

 ConditionsComfort  
Time TempWeatherWind HumidityBarometerVisibility
7:53 PM
Wed, May 27
82 °FSunny.7 mph65%30.15 "Hg10 mi
6:53 PM86 °FPartly sunny.8 mph53%30.14 "Hg10 mi
5:53 PM87 °FSunny.3 mph50%30.15 "Hg10 mi
4:53 PM87 °FPassing clouds.6 mph48%30.16 "Hg10 mi
3:53 PM86 °FPassing clouds.5 mph49%30.18 "Hg10 mi
2:53 PM84 °FPassing clouds.No wind55%30.20 "Hg10 mi
1:53 PM83 °FSunny.3 mph57%30.22 "Hg10 mi
1:00 PM82 °FPartly sunny.8 mph63%30.25 "Hg10 mi
11:53 AM77 °FMostly cloudy.8 mph74%30.26 "Hg10 mi
10:53 AM77 °FPartly sunny.6 mph77%30.27 "Hg10 mi
9:53 AM73 °FLow clouds.No wind84%30.26 "Hg10 mi
8:53 AM72 °FLow clouds.No wind84%30.27 "Hg10 mi
7:53 AM71 °FLow clouds.3 mph87%30.25 "Hg9 mi
7:01 AM70 °FFog.No wind90%30.25 "Hg5 mi
5:53 AM70 °FPassing clouds.No wind90%30.20 "Hg10 mi
4:53 AM70 °FClear.No wind90%30.18 "Hg10 mi
3:53 AM70 °FPassing clouds.No wind90%30.19 "Hg10 mi
2:53 AM70 °FPassing clouds.No wind87%30.17 "Hg10 mi
1:53 AM70 °FPassing clouds.3 mph90%30.18 "Hg10 mi
12:53 AM70 °FLight rain. Passing clouds.6 mph90%30.21 "Hg10 mi
11:53 PM
Tue, May 26
70 °FLight rain. Mostly cloudy.8 mph90%30.24 "Hg10 mi
10:53 PM70 °FRain. Partly cloudy.7 mph90%30.27 "Hg9 mi
9:53 PM70 °FLight rain. Passing clouds.No wind87%30.25 "Hg10 mi
9:04 PM71 °FThunderstorms. Mostly cloudy.9 mph84%30.25 "Hg6 mi
8:53 PM71 °FThundershowers. Cloudy.9 mph84%30.24 "Hg8 mi
Weather by CustomWeather, © 2015

See weather overviewHow to use our weather pages